Regional Weather Roundup
Issued by NWS

Home | Current Version | Previous Version | Graphics & Text | Print | Product List | Glossary Off
Versions: 1 2 3 4 5 6 7 8 9 10 11 12 13 14 15 16 17 18 19 20 21 22 23 24 25 26 27 28 29 30 31 32 33 34 35 36 37 38 39 40 41 42 43 44 45 46 47 48 49 50

000
ASUS43 KDTX 310110
RWRMI
MICHIGAN HOURLY REGIONAL WEATHER ROUNDUP
NATIONAL WEATHER SERVICE DETROIT/PONTIAC MI
900 PM EDT SUN AUG 30 2015

NOTE: "FAIR" INDICATES FEW OR NO CLOUDS BELOW 12,000 FEET WITH NO
SIGNIFICANT WEATHER AND/OR OBSTRUCTION TO VISIBILITY.

MIZ047>049-052>055-059>063-066>070-074>076-081>083-310200-
SOUTHEAST LOWER MICHIGAN

CITY           SKY/WX    TMP DP  RH WIND       PRES   REMARKS
ADRIAN         CLEAR     73  68  84 CALM      30.04R
ALMA           MOCLDY    70  68  95 CALM      30.03R
ANN ARBOR      CLEAR     70  67  90 CALM      30.03R
BAD AXE        CLEAR     68  66  93 CALM      30.03R FOG
DETROIT CITY   PTCLDY    76  68  76 SW3       30.02R
DETROIT        MOCLDY    74  70  87 CALM      30.03R
FLINT          CLEAR     73  67  81 CALM      30.03R
GROSSE ILE     PTCLDY    73  70  88 S3        30.01R
HILLSDALE      CLEAR     69  69 100 CALM      30.05R FOG
HOWELL         CLEAR     72  67  83 CALM      30.03R

CITY           SKY/WX    TMP DP  RH WIND       PRES   REMARKS
JACKSON        CLEAR     69  67  93 CALM      30.04R FOG
LAMBERTVILLE   CLEAR     73  69  86 CALM      30.03R
LANSING        CLEAR     71  66  84 W3        30.03R
LAPEER         NOT AVBL
MASON          CLEAR     69  65  86 CALM      30.03S HAZE
MONROE         PTCLDY    73  69  88 CALM      30.02R
MT. CLEMENS    MOCLDY    74  68  82 S2        30.01R
PONTIAC        CLEAR     72  66  81 CALM      30.03R
PORT HOPE        N/A     67  65  93 CALM      30.00R
PORT HURON     PTCLDY    68  68 100 CALM      30.02R FOG
TRI CITIES     CLEAR     71  66  84 SW3       30.02R
YPSILANTI      PTCLDY    76  68  76 CALM      30.03R
$$
MIZ043>046-050>051-056>058-064>065-071>073-077>080-310200-
SOUTHWEST LOWER MICHIGAN

CITY           SKY/WX    TMP DP  RH WIND       PRES   REMARKS
BATTLE CREEK   PTCLDY    70  66  87 W6        30.05R
BENTON HARBOR  CLEAR     65  63  93 CALM      30.04R FOG
BIG RAPIDS     CLEAR     67  64  91 CALM      30.02R
COLDWATER      CLEAR     68  67  96 CALM      30.04R FOG
HOLLAND        MOCLDY    66  64  93 SW3       30.04R FOG
GRAND RAPIDS   CLEAR     68  65  90 SW6       30.04R
KALAMAZOO      PTCLDY    70  64  81 CALM      30.05R
MARSHALL       CLEAR     68  67  96 CALM      30.03S FOG
MUSKEGON       PTCLDY    67  63  87 CALM      30.03R FOG
$$
MIZ016>042-310200-
NORTHERN LOWER MICHIGAN

CITY           SKY/WX    TMP DP  RH WIND       PRES   REMARKS
ALPENA         CLEAR     66  63  90 CALM      29.97S
BEAVER ISLAND  PTCLDY    65  62  87 SW8       29.96S
BELLAIRE       CLEAR     66  64  90 CALM      29.98S
CADILLAC       CLEAR     66  63  89 SW3       30.02S
CHARLEVOIX     PTCLDY    66  64  93 CALM      30.00S
FRANKFORT      CLEAR     65  63  91 SW3       30.00S
GAYLORD        CLEAR     68  65  90 SW6       30.00S
GRAYLING       CLEAR     67  63  86 CALM      30.01S
HARBOR SPRINGS PTCLDY    66  64  93 W6        29.97S
HOUGHTON LAKE  CLEAR     69  63  81 S6        30.01S
MANISTEE       CLEAR     64  59  82 CALM      30.01S
OSCODA         CLEAR     69  65  90 S3        29.98S
PELLSTON       PTCLDY    65  62  90 SW3       29.97S
TRAVERSE CITY  PTCLDY    71  63  75 SW5       29.98S
$$
MIZ007>008-015-310200-
EASTERN UPPER MICHIGAN

CITY           SKY/WX    TMP DP  RH WIND       PRES   REMARKS
KINROSS        PTCLDY    64  63  94 SW5       29.95R
MACKINAC ISLAN PTCLDY    66  63  91 SW9       29.96S
NEWBERRY       PTCLDY    64  62  93 SW10      29.94S
S. S. MARIE    CLEAR     66  61  84 S5        29.94R
$$
MIZ004>006-011>014-085-310200-
CENTRAL UPPER MICHIGAN

CITY           SKY/WX    TMP DP  RH WIND       PRES   REMARKS
MANISTIQUE       N/A     63  62  95 S8        29.94S FOG
ESCANABA       CLEAR     64  61  88 S7        29.93R
MENOMINEE      CLEAR     66  61  82 SW8       29.95S
$$
MIZ001>003-009>011-084-310200-
WESTERN UPPER MICHIGAN

CITY           SKY/WX    TMP DP  RH WIND       PRES   REMARKS
IRON MOUNTAIN  CLEAR     69  64  84 S6        29.93S
HOUGHTON       CLEAR     71  62  73 W7        29.87S
IRONWOOD       CLEAR     73  64  73 SW9       29.88R
$$

ABBREVIATIONS USED IN REMARKS
   TC - TEMPERATURE IN CELSIUS
  WCI - WIND CHILL INDEX
   HX - HEAT INDEX
  VSB - VISIBILITY



USA.gov is the U.S. government's official web portal to all federal, state and local government web resources and services.